Waarnemingen

Advertentie
Mijn weer
P11-B, Nederland (6203): temperatuur & dauwpunt: 11.08.2018 13:00:00 - 17.08.2018 13:00:00 (CEST)P11-B, Nederland (6203): windsnelheid & windstoten: 11.08.2018 13:00:00 - 17.08.2018 13:00:00 (CEST)P11-B, Nederland (6203): windrichting: 11.08.2018 13:00:00 - 17.08.2018 13:00:00 (CEST)P11-B, Nederland (6203): luchtdruk: 11.08.2018 13:00:00 - 17.08.2018 13:00:00 (CEST)P11-B, Nederland (6203): zicht: 11.08.2018 13:00:00 - 17.08.2018 13:00:00 (CEST)
Datum & Tijd tt [°C] td [°C] ff [km/u] ff [kn] fx [km/u] fx [kn] dd ppp [hPa] vv [km]
17.08.2018 13:00:00 17,4 12,3 16 9 18 10 W 1019,3 10
17.08.2018 12:00:00 17,5 12,9 13 7 18 10 - 1019,1 10
17.08.2018 11:00:00 18,1 13,3 13 7 18 10 - 1018,8 10
17.08.2018 10:00:00 18,3 13,3 9 5 11 6 - 1018,3 10
17.08.2018 09:00:00 18,0 12,9 8 4 14 8 NW 1017,8 10
17.08.2018 08:00:00 18,2 13,1 11 6 18 10 NW 1017,4 10
17.08.2018 07:00:00 18,1 12,6 13 7 18 10 NW 1016,6 10
17.08.2018 06:00:00 18,0 13,2 11 6 18 10 NW 1016,0 10
17.08.2018 05:00:00 18,2 14,5 11 6 18 10 W 1016,1 10
17.08.2018 04:00:00 18,1 14,5 16 9 25 14 - 1015,7 10
17.08.2018 03:00:00 18,3 14,6 21 11 25 14 - 1015,3 10
17.08.2018 02:00:00 18,1 13,6 18 10 22 12 - 1015,5 10
17.08.2018 01:00:00 18,1 12,5 18 10 25 14 - 1015,3 10
17.08.2018 00:00:00 18,0 12,6 21 11 29 16 - 1014,7 10
16.08.2018 23:00:00 17,8 12,9 26 14 32 18 - 1014,4 10
16.08.2018 22:00:00 18,2 12,1 41 22 40 21 WZW 1014,5 10
16.08.2018 21:00:00 17,9 16,5 29 16 32 18 Z 1013,6 10
16.08.2018 20:00:00 17,7 15,7 26 14 32 18 Z 1013,6 10
16.08.2018 19:00:00 18,0 14,8 28 15 36 19 Z 1013,5 10
16.08.2018 18:00:00 16,7 15,2 28 15 43 23 Z 1013,2 10
16.08.2018 17:00:00 15,6 14,7 21 11 32 18 - 1014,4 4,1
16.08.2018 16:00:00 15,8 15,0 15 8 29 16 WNW 1014,8 3,8
16.08.2018 15:00:00 16,4 15,3 21 11 43 23 WNW 1014,3 4,5
16.08.2018 14:00:00 18,9 16,9 42 23 47 25 ZZW 1013,5 10
16.08.2018 13:00:00 18,8 16,4 42 23 47 25 ZZW 1013,1 10
16.08.2018 12:00:00 18,9 16,2 48 26 50 27 ZZW 1013,2 10
16.08.2018 11:00:00 18,9 16,0 48 26 50 27 ZW 1013,1 10
16.08.2018 10:00:00 18,7 16,2 50 27 50 27 ZZW 1013,2 10
16.08.2018 09:00:00 18,6 16,6 48 26 50 27 ZZW 1012,7 10
16.08.2018 08:00:00 18,6 16,6 46 25 50 27 ZZW 1013,1 10
16.08.2018 07:00:00 18,8 16,3 46 25 47 25 ZZW 1013,4 10
16.08.2018 06:00:00 18,7 16,1 42 23 43 23 ZW 1013,7 10
16.08.2018 05:00:00 18,3 16,1 41 22 40 21 ZW 1013,8 10
16.08.2018 04:00:00 18,4 16,3 41 22 40 21 ZW 1013,9 10
16.08.2018 03:00:00 18,6 16,3 42 23 43 23 ZW 1014,3 10
16.08.2018 02:00:00 18,7 16,7 41 22 43 23 ZW 1014,7 10
16.08.2018 01:00:00 18,8 17,0 44 24 47 25 ZZW 1015,2 10
16.08.2018 00:00:00 18,9 16,8 48 26 50 27 ZZW 1015,4 10
15.08.2018 23:00:00 19,0 16,3 52 28 50 27 ZZW 1015,7 10
15.08.2018 22:00:00 19,1 16,3 48 26 50 27 ZZW 1015,6 10
15.08.2018 21:00:00 19,1 16,4 48 26 50 27 ZZW 1015,5 10
15.08.2018 20:00:00 19,2 16,8 46 25 50 27 ZZW 1015,6 10
15.08.2018 19:00:00 18,9 16,3 42 23 47 25 ZZW 1016,0 10
15.08.2018 18:00:00 18,9 16,2 37 20 43 23 ZZW 1016,5 10
15.08.2018 17:00:00 18,5 15,5 39 21 36 19 ZZW 1017,2 10
15.08.2018 16:00:00 18,5 15,9 39 21 36 19 ZZW 1017,3 10
15.08.2018 15:00:00 18,5 15,2 37 20 36 19 ZW 1017,6 10
15.08.2018 14:00:00 18,4 15,3 37 20 36 19 ZW 1017,7 10
15.08.2018 13:00:00 18,2 15,1 31 17 32 18 ZW 1017,7 10
15.08.2018 12:00:00 18,1 15,8 28 15 29 16 ZW 1017,6 10
15.08.2018 11:00:00 18,2 15,3 26 14 29 16 ZW 1017,4 10
15.08.2018 10:00:00 18,6 16,3 28 15 29 16 ZW 1017,5 10
15.08.2018 09:00:00 18,8 16,6 26 14 25 14 WZW 1017,1 10
15.08.2018 08:00:00 18,9 17,1 21 11 25 14 WZW 1016,8 10
15.08.2018 07:00:00 19,1 17,2 18 10 22 12 - 1016,3 10
15.08.2018 06:00:00 19,3 17,8 22 12 22 12 W 1016,1 10
15.08.2018 05:00:00 19,3 18,1 22 12 22 12 WZW 1016,2 10
15.08.2018 04:00:00 19,5 18,1 26 14 25 14 WZW 1016,3 10
15.08.2018 03:00:00 19,5 18,1 26 14 29 16 ZW 1016,2 10
15.08.2018 02:00:00 19,5 18,0 28 15 29 16 ZZW 1016,4 10
15.08.2018 01:00:00 19,8 16,9 26 14 29 16 ZZW 1016,4 10
15.08.2018 00:00:00 19,5 17,0 29 16 29 16 ZZW 1016,4 10
14.08.2018 23:00:00 19,4 16,0 28 15 29 16 ZZW 1016,5 10
14.08.2018 22:00:00 19,3 16,1 31 17 29 16 ZZW 1016,7 10
14.08.2018 21:00:00 19,2 15,3 29 16 32 18 ZW 1016,3 10
14.08.2018 20:00:00 19,1 15,0 26 14 29 16 ZW 1016,3 10
14.08.2018 19:00:00 19,2 15,5 26 14 25 14 ZW 1016,2 10
14.08.2018 18:00:00 18,7 15,2 26 14 25 14 WZW 1016,1 10
14.08.2018 17:00:00 18,5 15,2 22 12 22 12 WZW 1016,2 10
14.08.2018 16:00:00 18,2 15,4 18 10 25 14 W 1016,2 10
14.08.2018 15:00:00 17,8 15,9 21 11 25 14 - 1016,0 10
14.08.2018 14:00:00 17,9 16,2 16 9 22 12 - 1015,5 10
14.08.2018 13:00:00 17,4 16,5 15 8 22 12 - 1015,0 6
14.08.2018 12:00:00 18,4 14,4 15 8 18 10 - 1014,7 10
14.08.2018 11:00:00 18,9 14,6 13 7 22 12 WNW 1014,2 10
14.08.2018 10:00:00 18,5 14,6 16 9 25 14 W 1013,6 10
14.08.2018 09:00:00 18,2 14,6 18 10 25 14 W 1013,0 10
14.08.2018 08:00:00 18,2 14,4 18 10 25 14 WNW 1012,2 10
14.08.2018 07:00:00 17,8 14,8 22 12 32 18 WNW 1011,5 10
14.08.2018 06:00:00 17,8 15,0 24 13 29 16 WNW 1010,9 10
14.08.2018 05:00:00 17,9 15,2 24 13 29 16 W 1010,3 10
14.08.2018 04:00:00 18,0 15,3 22 12 32 18 WNW 1009,9 10
14.08.2018 03:00:00 18,2 16,2 22 12 29 16 W 1009,4 10
14.08.2018 02:00:00 18,5 16,8 26 14 32 18 W 1008,9 10
14.08.2018 01:00:00 18,7 16,8 26 14 29 16 - 1008,6 10
14.08.2018 00:00:00 18,6 16,7 21 11 25 14 - 1008,1 10
13.08.2018 23:00:00 18,6 16,4 15 8 18 10 - 1007,7 10
13.08.2018 22:00:00 18,7 16,8 15 8 22 12 - 1007,5 10
13.08.2018 21:00:00 18,7 16,8 26 14 29 16 W 1007,0 10
13.08.2018 20:00:00 18,6 16,3 26 14 25 14 WZW 1006,6 10
13.08.2018 19:00:00 18,4 15,6 26 14 25 14 WZW 1006,3 10
13.08.2018 18:00:00 18,3 15,5 21 11 22 12 - 1006,1 10
13.08.2018 17:00:00 18,0 15,5 21 11 25 14 WZW 1005,9 10
13.08.2018 16:00:00 17,8 15,9 16 9 25 14 - 1005,6 10
13.08.2018 15:00:00 17,7 16,3 18 10 22 12 - 1005,7 10
13.08.2018 14:00:00 17,8 16,3 13 7 25 14 - 1005,6 10
13.08.2018 13:00:00 17,9 17,1 18 10 18 10 W 1005,1 7
13.08.2018 12:00:00 17,8 16,9 13 7 18 10 ZW 1005,3 8
13.08.2018 11:00:00 17,6 16,9 11 6 22 12 ZO 1005,2 8
13.08.2018 10:00:00 17,1 15,5 26 14 32 18 - 1005,1 10
13.08.2018 09:00:00 18,6 16,6 18 10 22 12 ZW 1005,0 10
13.08.2018 08:00:00 19,1 17,3 5 3 7 4 ZZO 1005,2 10
13.08.2018 07:00:00 18,9 16,6 5 3 7 4 O 1004,9 10
13.08.2018 06:00:00 18,9 16,0 8 4 7 4 OZO 1005,3 10
13.08.2018 05:00:00 18,9 15,4 8 4 7 4 OZO 1005,5 10
13.08.2018 04:00:00 18,8 16,4 9 5 22 12 Z 1006,2 10
13.08.2018 03:00:00 18,8 15,5 15 8 22 12 - 1006,7 10
13.08.2018 02:00:00 19,9 15,6 16 9 18 10 OZO 1007,0 10
13.08.2018 01:00:00 20,1 14,8 9 5 11 6 OZO 1007,7 10
13.08.2018 00:00:00 20,3 13,3 5 3 7 4 - 1008,1 10
12.08.2018 23:00:00 20,0 15,3 2 1 7 4 - 1008,5 10
12.08.2018 22:00:00 20,5 13,8 4 2 7 4 - 1008,8 10
12.08.2018 21:00:00 20,3 14,4 9 5 14 8 - 1009,1 10
12.08.2018 20:00:00 20,3 14,9 16 9 18 10 ZW 1009,2 10
12.08.2018 19:00:00 20,5 15,9 16 9 18 10 ZW 1009,8 10
12.08.2018 18:00:00 20,4 17,0 24 13 25 14 ZZW 1010,2 10
12.08.2018 17:00:00 20,3 17,1 29 16 32 18 Z 1010,5 10
12.08.2018 16:00:00 20,6 16,0 39 21 36 19 Z 1010,9 10
12.08.2018 15:00:00 20,3 16,2 39 21 40 21 Z 1011,4 10
12.08.2018 14:00:00 20,1 15,6 39 21 40 21 Z 1011,9 10
12.08.2018 13:00:00 20,0 15,2 37 20 43 23 Z 1012,0 10
12.08.2018 12:00:00 19,9 15,1 39 21 47 25 Z 1012,4 10
12.08.2018 11:00:00 19,9 14,8 42 23 47 25 - 1012,6 10
12.08.2018 10:00:00 19,9 14,9 41 22 47 25 Z 1012,6 10
12.08.2018 09:00:00 19,8 14,5 44 24 47 25 Z 1012,9 10
12.08.2018 08:00:00 19,7 14,0 46 25 47 25 Z 1013,4 10
12.08.2018 07:00:00 19,5 15,2 42 23 43 23 Z 1014,1 10
12.08.2018 06:00:00 19,2 14,3 37 20 40 21 Z 1014,6 10
12.08.2018 05:00:00 18,6 14,7 31 17 32 18 Z 1015,6 10
12.08.2018 04:00:00 18,1 15,4 34 18 36 19 ZZW 1016,5 10
12.08.2018 03:00:00 18,1 14,8 39 21 43 23 ZZW 1017,4 10
12.08.2018 02:00:00 18,7 13,4 34 18 36 19 Z 1017,8 10
12.08.2018 01:00:00 18,6 10,2 28 15 32 18 Z 1018,5 10
12.08.2018 00:00:00 18,4 10,0 26 14 29 16 Z 1019,5 10
11.08.2018 23:00:00 17,9 8,9 21 11 25 14 - 1020,0 10
11.08.2018 22:00:00 17,7 8,4 18 10 22 12 - 1020,5 10
11.08.2018 21:00:00 17,4 8,9 15 8 18 10 - 1020,9 10
11.08.2018 20:00:00 17,2 10,4 21 11 25 14 ZZW 1021,3 10
11.08.2018 19:00:00 17,2 9,6 21 11 25 14 ZW 1021,7 10
11.08.2018 18:00:00 17,0 10,0 22 12 25 14 ZW 1022,1 10
11.08.2018 17:00:00 16,6 10,0 21 11 25 14 ZW 1022,4 10
11.08.2018 16:00:00 16,3 10,3 21 11 29 16 WZW 1022,8 10
11.08.2018 15:00:00 16,0 10,6 24 13 29 16 WZW 1022,8 10
11.08.2018 14:00:00 15,8 11,1 21 11 25 14 - 1022,8 10
11.08.2018 13:00:00 15,5 10,8 22 12 29 16 - 1022,6 10

tt = temperatuur
td = dauwpunt
ff = windsnelheid
fx = windstoten
dd = windrichting
ppp = luchtdruk
vv = zicht

Weerstations in de omgeving